sat.trackr.live / text

‹ back to catalog

GPS BIII-3 (PRN 23)

NORAD 45854 · 2020-041A

PAYLOAD ACTIVE UNKNOWN

§ Identity

Operator
Country
US
Launch date
2020-06-30
Launch site
AFETR
Launch vehicle
Mass (kg)
RCS (m²)

Purposes: earth_obs, nav

External: N2YO · Heavens-Above · Gunter

§ Orbital elements

Epoch: 2026-09-12T17:30:00.400320Z

Period
717.97 min
Inclination
56.7244°
Eccentricity
0.0067194
Mean motion
2.00565909 rev/d
Perigee alt
20,003.5 km
Apogee alt
20,360.5 km
Semi-major
26,560.1 km
B*
0.0000e+0
RAAN
25.5535°
Arg perigee
205.3379°
Mean anomaly
327.8950°
Rev number
4,579

§ Raw data

GPS BIII-3  (PRN 23)1 45854U 20041A   26255.72917130 -.00000095  00000+0  00000+0 0  99962 45854  56.7244  25.5535 0067194 205.3379 327.8950  2.00565909 45792

JSON: /api/v1/satellites/45854 · /tle

For live sub-satellite position, see the globe view (requires WebGL).

§ Visibility from observer

Set your observer location to see the next 7 days of passes ≥ 10°. The values pass through the URL so the page stays shareable.

No JS? Fill the form by hand. The geolocation button needs JavaScript.